Погода в Кадине

Россия / Смоленская область     54°18′07″N   31°28′07″E
темп.,
°C
ветер,
м/с
пор.,
м/с
влажн.,
%
обл.,
%
осадки,
мм/ч
давл.,
гПа
погр.,
м
8 мая, сб
сб800:00+7юв6119480 3.1 1006394
03:00+7ююз2698100 3.1 1005195
06:00+7зсз2397100 0.0 1004179
09:00+6ссз5893100 0.0 1005417
12:00+7ссз7978100 0.1 1007889
15:00+9ссз6960100 0.1 10071533
18:00+7сз91170100 0.1 10091166
21:00+5сз61272100 0.2 1011845
9 мая, вс
вс900:00+3зсз61375100 0.0 1013453
03:00+2сз6148059 0.0 1015483
06:00+1сз512835 0.0 1018400
09:00+6сз610623 0.0 10201058
12:00+9сз78465 0.0 10211847
15:00+11сз674456 0.0 10222185
18:00+11сз46535 0.0 10232024
21:00+5зсз33695 0.0 102538
10 мая, пн
пн1000:00+4з12615 0.0 102610
03:00+3юз22615 0.0 102811
06:00+3ю22695 0.0 102927
09:00+9ю35585 0.0 1029388
12:00+13ююз44515 0.0 10291148
15:00+15ю334944 0.0 10281329
18:00+15ююв22523 0.0 10281169
21:00+9юв22660 0.0 102913
11 мая, вт
вт1100:00+7юв22710 0.0 102915
03:00+6вюв22710 0.0 103017
06:00+6вюв33780 0.0 103045
09:00+11в46603 0.0 1029411
12:00+15в57495 0.0 10281007
15:00+17в57455 0.0 10261224
18:00+16в47580 0.0 1025809
21:00+11в4118354 0.0 1025208
12 мая, ср
ср1200:00+10в38935 0.0 1025130
03:00+9всв36955 0.0 1024114
06:00+9св411920 0.0 1023239
09:00+13в61083100 0.0 1022543
12:00+12всв41091100 0.2 1020698
15:00+9ю81194100 7.5 1020635
18:00+11ююв588010 1.1 1021726
21:00+9всв49925 1.1 1021171